Home   Weather   Sydney   Past weeks
Flag for Australia

Past Weather in Sydney, New South Wales, Australia — Yesterday and Last 2 Weeks

Now
64 °F

Mild.


Feels Like: 64 °F
Forecast: 76 / 62 °F
Wind: N/A

Location: Sydney Regional Office

Current Time: Mar 31, 2020 at 6:36:38 am

Latest Report: Mar 31, 2020 at 6:00 am


Visibility: N/A

Pressure: 29.96 "Hg

Humidity: 86%

Dew Point: 60 °F

Location of SydneyLocation

Past Weather in Sydney — Graph

°F

Sydney Temperature Yesterday

Maximum temperature yesterday: 76 °F (at 3:00 pm)
Minimum temperature yesterday: 67 °F (at 7:00 am)
Average temperature yesterday: 71 °F

High & Low Weather Summary for the Past Weeks

 TemperatureHumidityPressure
High95 °F (Mar 20, 4:00 pm)90% (Mar 16, 9:00 am)30.36 "Hg (Mar 16, 9:00 am)
Low59 °F (Mar 17, 7:00 am)20% (Mar 20, 6:00 pm)29.82 "Hg (Mar 20, 6:00 pm)
Average69 °F68%30.16 "Hg
* Reported Mar 16 4:00 am — Mar 31 4:00 am, Sydney. Weather by CustomWeather, © 2020

Note: Actual official high and low records may vary slightly from our data, if they occured in-between our weather recording intervals... More about our weather records

Sydney Weather History for the Previous 24 Hours

Scroll right to see more
 ConditionsComfort  
Time TempWeatherWind HumidityBarometerVisibility
4:00 am
Tue, Mar 31
65 °FMild.N/A83%29.94 "HgN/A
3:00 am66 °FMild.N/A81%29.94 "HgN/A
1:00 am67 °FMild.N/A78%29.93 "HgN/A
12:00 am68 °FMild.N/A75%29.92 "HgN/A
10:00 pm
Mon, Mar 30
70 °FMild.N/A76%29.91 "HgN/A
9:00 pm71 °FMild.N/A73%29.91 "HgN/A
7:00 pm73 °FMild.N/A65%29.88 "HgN/A
6:00 pm75 °FMild.N/A62%29.88 "HgN/A
4:00 pm76 °FMild.N/A58%29.88 "HgN/A
3:00 pm76 °FMild.N/A56%29.88 "HgN/A
1:00 pm72 °FMild.N/A70%29.93 "HgN/A
12:00 pm71 °FMild.N/A73%29.94 "HgN/A
10:00 am69 °FMild.N/A83%29.95 "HgN/A
9:00 am68 °FMild.N/A85%29.94 "HgN/A
7:00 am67 °FMild.N/A87%29.94 "HgN/A
6:00 am67 °FMild.N/A86%29.94 "HgN/A
Weather by CustomWeather, © 2020

See weather overview

Advertising